WetterOnline ( http://www.wetteronline.de )

Wetter aktuell Bayreuth

Aktuelles Wetter: Bamberg (243m)

6-stündlich | Neueste Meldungen
Ortszeit Temperatur Wetter
Di, 19.09. 14:00 13.8° C bedeckt
Di, 19.09. 8:00 7.9° C bedeckt
Di, 19.09. 2:00 6.6° C bedeckt
Mo, 18.09. 20:00 8.1° C wolkenlos
Ortszeit Temperatur Wetter
Di, 19.09. 17:00 14.6° C bewölkt
Di, 19.09. 16:30 14.6° C bewölkt
Di, 19.09. 16:00 14.7° C bewölkt
Di, 19.09. 15:30 14.1° C bedeckt
Di, 19.09. 15:00 14.2° C bedeckt
Di, 19.09. 14:30 13.9° C bewölkt
Ortszeit Relative Feuchte Sichtweite
Di, 19.09. 14:00 65% 70 km
Di, 19.09. 8:00 98% 8 km
Di, 19.09. 2:00 98% 5.0 km
Mo, 18.09. 20:00 94% 10 km
Ortszeit Relative Feuchte Sichtweite
Di, 19.09. 17:00 65% 70 km
Di, 19.09. 16:30 65% 70 km
Di, 19.09. 16:00 56% 70 km
Di, 19.09. 15:30 65% 70 km
Di, 19.09. 15:00 61% 70 km
Di, 19.09. 14:30 65% 70 km
Ortszeit Niederschlagsmenge Niederschlagsart
Di, 19.09. 14:00 0.0 l/m2 in 6 Std. -
Di, 19.09. 8:00 0.1 l/m2 in 12 Std. -
Di, 19.09. 2:00 0.1 l/m2 in 6 Std. Regen
Mo, 18.09. 20:00 1 l/m2 in 12 Std. Regen
Ortszeit Niederschlagsmenge Niederschlagsart
Di, 19.09. 17:00 0.0 l/m2 in 1 Std. -
Di, 19.09. 16:30 keine Meldung -
Di, 19.09. 16:00 0.0 l/m2 in 1 Std. -
Di, 19.09. 15:30 keine Meldung -
Di, 19.09. 15:00 0.0 l/m2 in 1 Std. -
Di, 19.09. 14:30 keine Meldung -
Ortszeit Stärke Spitze Richtung
km/h Bft. km/h Grad Sektor
Di, 19.09. 14:00 7 2 14 300° NW
Di, 19.09. 8:00 4 1 7 120° SO
Di, 19.09. 2:00 0 0 14 - -
Mo, 18.09. 20:00 2 1 22 160° S
Ortszeit Stärke Spitze Richtung
km/h Bft. km/h Grad Sektor
Di, 19.09. 17:00 4 1 14 350° N
Di, 19.09. 16:30 7 2 15 280° W
Di, 19.09. 16:00 7 2 14 310° NW
Di, 19.09. 15:30 7 2 14 290° W
Di, 19.09. 15:00 7 2 14 320° NW
Di, 19.09. 14:30 7 2 11 310° NW
Ortszeit Untergrenze Bedeckung Gattung
total tief tief mittel hoch
Di, 19.09. 14:00 720 m 8/8 8/8 - - -
Di, 19.09. 8:00 2400 m 8/8 8/8 - - -
Di, 19.09. 2:00 1500 m 8/8 8/8 - - -
Mo, 18.09. 20:00 - 0/8 0/8 - - -
Ortszeit Bedeckungsgrad in Achtel und Wolkenuntergrenze
Di, 19.09. 17:00 4(870m) 7(2100m)
Di, 19.09. 16:30 2(990m) 5(1800m) 8(7500m)
Di, 19.09. 16:00 6(2400m) 7(7500m)
Di, 19.09. 15:30 9 9 9
Di, 19.09. 15:00 1(930m) 8(2400m)
Di, 19.09. 14:30 7(2400m)
Ortszeit Luftdruck NN (hPa) Tendenz (hPa in 3 Std.)
Di, 19.09. 14:00 1017 - 0,2
Di, 19.09. 8:00 1018 + 0,2
Di, 19.09. 2:00 1018 - 0,1
Mo, 18.09. 20:00 1018 + 0,7
Ortszeit Luftdruck NN (hPa) Tendenz (hPa in 3 Std.)
Di, 19.09. 17:00 1017 - 0,2
Di, 19.09. 16:30 1017 - 0,1
Di, 19.09. 16:00 1017 - 0,1
Di, 19.09. 15:30 1017 - 0,2
Di, 19.09. 15:00 1017 - 0,6
Di, 19.09. 14:30 1017 - 0,5
Ortszeit Schneehöhe (cm)
Di, 19.09. 14:00 -
Di, 19.09. 8:00 -
Di, 19.09. 2:00 -
Mo, 18.09. 20:00 -
Ortszeit Schneehöhe (cm)
Di, 19.09. 17:00 -
Di, 19.09. 16:30 -
Di, 19.09. 16:00 -
Di, 19.09. 15:30 -
Di, 19.09. 15:00 -
Di, 19.09. 14:30 -
Link zu dieser Seite / Seite empfehlen

Das Wetter in ...